When you browse on this site, cookies collect data to enhance your experience and personalize the content and advertising you see.
Visit our Privacy Policy to learn more. By continuing to use the site, you agree to this use of cookies and data.
  • In United Kingdom
  • List of Countries
  • For 7 days
  • Water Temperature
  • Weather Map
  • Weather Widgets
  • user-avatar
    Login

    Hourly Weather Santiago Yaitepec

    Today, 25 August, Sunday

    Time Temperature Precipitation Wind Pressure Humidity
    00:00 +13°C° 0 mm 0 mps 600 mmHg 93%
    01:00 +14°C° 0 mm 1 mps 599 mmHg 92%
    02:00 +14°C° 0 mm 1 mps 599 mmHg 92%
    03:00 +14°C° 0 mm 1 mps 599 mmHg 91%
    04:00 +13°C° 0 mm 1 mps 599 mmHg 91%
    05:00 +13°C° 0 mm 1 mps 598 mmHg 90%
    06:00 +13°C° 0 mm 1 mps 599 mmHg 91%
    07:00 +15°C° 0 mm 1 mps 600 mmHg 84%
    08:00 +17°C° 0 mm 0 mps 601 mmHg 78%
    09:00 +19°C° 0 mm 0 mps 602 mmHg 71%
    10:00 +21°C° 0.2 mm 1 mps 602 mmHg 69%
    11:00 +22°C° 0.2 mm 1 mps 602 mmHg 67%
    12:00 +23°C° 0.2 mm 2 mps 603 mmHg 65%
    13:00 +23°C° 0.8 mm 2 mps 602 mmHg 69%
    14:00 +21°C° 0.8 mm 2 mps 601 mmHg 73%
    15:00 +20°C° 0.8 mm 2 mps 600 mmHg 77%
    16:00 +20°C° 0.5 mm 1 mps 600 mmHg 82%
    17:00 +19°C° 0.5 mm 1 mps 600 mmHg 86%
    18:00 +18°C° 0.5 mm 1 mps 599 mmHg 91%
    19:00 +18°C° 0.2 mm 1 mps 599 mmHg 93%
    20:00 +15°C° 0.2 mm 0 mps 599 mmHg 95%
    21:00 +14°C° 0.2 mm 0 mps 599 mmHg 96%
    22:00 +14°C° 0.4 mm 0 mps 599 mmHg 96%
    23:00 +14°C° 0.4 mm 0 mps 599 mmHg 96%

    Tomorrow, 26 August, Monday

    Time Temperature Precipitation Wind Pressure Humidity
    00:00 +13°C° 0.4 mm 0 mps 599 mmHg 96%
    01:00 +13°C° 0.1 mm 0 mps 599 mmHg 96%
    02:00 +13°C° 0.1 mm 0 mps 598 mmHg 96%
    03:00 +13°C° 0.1 mm 0 mps 598 mmHg 96%
    04:00 +13°C° 0 mm 1 mps 598 mmHg 95%
    05:00 +13°C° 0 mm 1 mps 598 mmHg 95%
    06:00 +13°C° 0 mm 1 mps 598 mmHg 95%
    07:00 +15°C° 0 mm 1 mps 599 mmHg 89%
    08:00 +16°C° 0 mm 0 mps 600 mmHg 84%
    09:00 +18°C° 0 mm 0 mps 601 mmHg 78%
    10:00 +21°C° 0.2 mm 1 mps 601 mmHg 74%
    11:00 +21°C° 0.2 mm 1 mps 601 mmHg 70%
    12:00 +21°C° 0.2 mm 2 mps 602 mmHg 67%
    13:00 +21°C° 1 mm 2 mps 601 mmHg 71%
    14:00 +20°C° 1 mm 2 mps 600 mmHg 75%
    15:00 +19°C° 1 mm 2 mps 599 mmHg 80%
    16:00 +20°C° 0.9 mm 1 mps 599 mmHg 84%
    17:00 +19°C° 0.9 mm 1 mps 598 mmHg 89%
    18:00 +18°C° 0.9 mm 1 mps 598 mmHg 94%
    19:00 +16°C° 0.6 mm 1 mps 598 mmHg 95%
    20:00 +14°C° 0.6 mm 0 mps 598 mmHg 95%
    21:00 +13°C° 0.6 mm 0 mps 599 mmHg 96%
    22:00 +13°C° 0.5 mm 0 mps 599 mmHg 95%
    23:00 +13°C° 0.5 mm 0 mps 599 mmHg 95%

    Day after tomorrow, 27 August, Tuesday

    Time Temperature Precipitation Wind Pressure Humidity
    00:00 +13°C° 0.5 mm 0 mps 598 mmHg 94%
    01:00 +13°C° 0.1 mm 1 mps 598 mmHg 94%
    02:00 +13°C° 0.1 mm 1 mps 598 mmHg 93%
    03:00 +13°C° 0.1 mm 1 mps 598 mmHg 92%
    04:00 +13°C° 0 mm 1 mps 598 mmHg 92%
    05:00 +13°C° 0 mm 1 mps 597 mmHg 91%
    06:00 +12°C° 0 mm 1 mps 597 mmHg 91%
    07:00 +15°C° 0 mm 1 mps 599 mmHg 83%
    08:00 +16°C° 0 mm 0 mps 600 mmHg 76%
    09:00 +18°C° 0 mm 0 mps 601 mmHg 68%
    10:00 +22°C° 0.1 mm 1 mps 602 mmHg 63%
    11:00 +23°C° 0.1 mm 1 mps 602 mmHg 58%
    12:00 +24°C° 0.1 mm 2 mps 602 mmHg 53%
    13:00 +23°C° 1.7 mm 2 mps 601 mmHg 62%
    14:00 +21°C° 1.7 mm 2 mps 600 mmHg 70%
    15:00 +21°C° 1.7 mm 1 mps 599 mmHg 79%
    16:00 +20°C° 1.2 mm 1 mps 599 mmHg 82%
    17:00 +19°C° 1.2 mm 1 mps 599 mmHg 86%
    18:00 +16°C° 1.2 mm 0 mps 598 mmHg 90%
    19:00 +15°C° 0.2 mm 0 mps 599 mmHg 91%
    20:00 +15°C° 0.2 mm 1 mps 599 mmHg 91%
    21:00 +14°C° 0.2 mm 1 mps 599 mmHg 92%
    22:00 +14°C° 0 mm 1 mps 599 mmHg 90%
    23:00 +13°C° 0 mm 1 mps 599 mmHg 88%

    28 August, Wednesday

    Time Temperature Precipitation Wind Pressure Humidity
    00:00 +13°C° 0 mm 1 mps 599 mmHg 87%
    01:00 +13°C° 0 mm 1 mps 599 mmHg 85%
    02:00 +13°C° 0 mm 1 mps 599 mmHg 83%
    03:00 +13°C° 0 mm 1 mps 598 mmHg 82%
    04:00 +13°C° 0 mm 1 mps 598 mmHg 81%
    05:00 +13°C° 0 mm 1 mps 598 mmHg 80%
    06:00 +13°C° 0 mm 1 mps 598 mmHg 79%
    07:00 +15°C° 0 mm 1 mps 600 mmHg 74%
    08:00 +18°C° 0 mm 1 mps 601 mmHg 68%
    09:00 +18°C° 0 mm 0 mps 602 mmHg 63%
    10:00 +22°C° 0 mm 1 mps 603 mmHg 58%
    11:00 +23°C° 0 mm 1 mps 603 mmHg 53%
    12:00 +25°C° 0 mm 1 mps 604 mmHg 48%
    13:00 +24°C° 0.5 mm 1 mps 603 mmHg 54%
    14:00 +23°C° 0.5 mm 2 mps 602 mmHg 60%
    15:00 +21°C° 0.5 mm 2 mps 601 mmHg 65%
    16:00 +21°C° 0.6 mm 1 mps 600 mmHg 73%
    17:00 +20°C° 0.6 mm 1 mps 600 mmHg 80%
    18:00 +19°C° 0.6 mm 1 mps 599 mmHg 87%
    19:00 +18°C° 0.5 mm 1 mps 599 mmHg 89%
    20:00 +15°C° 0.5 mm 1 mps 599 mmHg 91%
    21:00 +14°C° 0.5 mm 1 mps 600 mmHg 94%
    22:00 +14°C° 0 mm 1 mps 600 mmHg 93%
    23:00 +14°C° 0 mm 1 mps 600 mmHg 92%

    29 August, Thursday

    Time Temperature Precipitation Wind Pressure Humidity
    00:00 +14°C° 0 mm 1 mps 600 mmHg 91%
    01:00 +13°C° 0 mm 1 mps 599 mmHg 91%
    02:00 +13°C° 0 mm 1 mps 599 mmHg 91%
    03:00 +13°C° 0 mm 2 mps 598 mmHg 90%
    04:00 +12°C° 0 mm 2 mps 598 mmHg 90%
    05:00 +12°C° 0 mm 2 mps 598 mmHg 89%
    06:00 +12°C° 0 mm 2 mps 598 mmHg 88%
    07:00 +14°C° 0 mm 1 mps 600 mmHg 80%
    08:00 +18°C° 0 mm 1 mps 601 mmHg 72%
    09:00 +20°C° 0 mm 1 mps 602 mmHg 64%
    10:00 +21°C° 0 mm 1 mps 603 mmHg 57%
    11:00 +23°C° 0 mm 1 mps 603 mmHg 49%
    12:00 +25°C° 0 mm 2 mps 604 mmHg 42%
    13:00 +24°C° 0.1 mm 2 mps 603 mmHg 44%
    14:00 +24°C° 0.1 mm 2 mps 602 mmHg 46%
    15:00 +23°C° 0.1 mm 2 mps 602 mmHg 48%
    16:00 +21°C° 0.1 mm 2 mps 601 mmHg 58%
    17:00 +20°C° 0.1 mm 1 mps 600 mmHg 69%
    18:00 +18°C° 0.1 mm 1 mps 600 mmHg 79%
    19:00 +16°C° 0 mm 1 mps 600 mmHg 82%
    20:00 +15°C° 0 mm 1 mps 600 mmHg 84%
    21:00 +14°C° 0 mm 1 mps 600 mmHg 87%
    22:00 +13°C° 0 mm 1 mps 600 mmHg 84%
    23:00 +13°C° 0 mm 1 mps 600 mmHg 82%

    30 August, Friday

    Time Temperature Precipitation Wind Pressure Humidity
    00:00 +12°C° 0 mm 1 mps 600 mmHg 79%
    01:00 +12°C° 0 mm 2 mps 599 mmHg 77%
    02:00 +12°C° 0 mm 2 mps 599 mmHg 76%
    03:00 +10°C° 0 mm 2 mps 598 mmHg 74%
    04:00 +10°C° 0 mm 2 mps 598 mmHg 72%
    05:00 +10°C° 0 mm 2 mps 598 mmHg 71%
    06:00 +10°C° 0 mm 2 mps 598 mmHg 69%
    07:00 +13°C° 0 mm 2 mps 599 mmHg 63%
    08:00 +16°C° 0 mm 1 mps 601 mmHg 56%
    09:00 +20°C° 0 mm 1 mps 602 mmHg 50%
    10:00 +21°C° 0 mm 1 mps 602 mmHg 46%
    11:00 +23°C° 0 mm 1 mps 603 mmHg 42%
    12:00 +24°C° 0 mm 1 mps 603 mmHg 38%
    13:00 +24°C° 0 mm 1 mps 603 mmHg 42%
    14:00 +23°C° 0 mm 2 mps 602 mmHg 45%
    15:00 +23°C° 0 mm 2 mps 601 mmHg 49%
    16:00 +21°C° 0.7 mm 1 mps 600 mmHg 61%
    17:00 +19°C° 0.7 mm 1 mps 600 mmHg 73%
    18:00 +18°C° 0.7 mm 1 mps 599 mmHg 85%
    19:00 +16°C° 0.7 mm 1 mps 599 mmHg 87%
    20:00 +14°C° 0.7 mm 0 mps 599 mmHg 89%
    21:00 +13°C° 0.7 mm 0 mps 599 mmHg 91%
    22:00 +12°C° 0.2 mm 0 mps 599 mmHg 91%
    23:00 +13°C° 0.2 mm 1 mps 599 mmHg 90%
    Show more